パンスターズ彗星

P/2024 X3 ( PanSTARRS )

English version
Home page
Updated on August 10, 2025

---------------------------------------------------------------------

・ プロフィール

発見日 2024年12月8日
発見光度 21.0等
発見者 Pan-STARRS 2 telescope (Haleakala)

・ 写真集

・ 軌道要素

Epoch 2025 May 5.0 TT = JDT 2460800.5
T 2024 Sept. 5.77975 TT                                 Pike
q   2.6141753            (2000.0)            P               Q
n   0.05329013     Peri.  352.94431     -0.28096920     -0.95853554
a   6.9936652      Node   113.36469     +0.88303714     -0.27762926
e   0.6262081      Incl.    2.97233     +0.37590120     -0.06427759
P  18.5
From 104 observations 2024 Oct. 22-2025 May 18, mean residual 0".6.

・ 光度変化

        m1 = 11.0 + 5 logΔ + 15.0 log r(t - 180)

---------------------------------------------------------------------

軌道要素はM.P.E.C. 2025-M120に掲載されたものです。
光度グラフはComet for Windowsで作成したものです。

---------------------------------------------------------------------

Copyright(C) Seiichi Yoshida (comet@aerith.net). All rights reserved.